Weather History for Hondo, TX

Change the Weather History Date:

Wednesday, March 6, 2013

  Actual Average Record
Temperature  
Mean Temperature 44 °F -  
Max Temperature 62 °F 68 °F 86 °F (2009)
Min Temperature 27 °F 45 °F 27 °F (2013)
Degree Days  
Heating Degree Days 20    
Moisture  
Dew Point 16 °F    
Average Humidity 34    
Maximum Humidity 67    
Minimum Humidity 16    
Precipitation  
Precipitation 0.00 in - - ()
Sea Level Pressure  
Sea Level Pressure 30.33 in    
Wind  
Wind Speed 8 mph (East)    
Max Wind Speed 12 mph    
Max Gust Speed 18 mph    
Visibility 10 miles    
Events      
Averages and records for this station are not official NWS values.
T = Trace of Precipitation, MM = Missing Value Source: NWS Daily Summary

Daily Weather History Graph

Daily Weather History Graph

Search for Another Location

Airport:

Trip Planner

Search our weather history database for the weather conditions in past years. The results will help you decide how hot, cold, wet, or windy it might be!

Date:

Astronomy

Mar. 06, 2013 Rise Set
Actual Time 6:56 AM CST 6:39 PM CST
Civil Twilight 6:32 AM CST 7:03 PM CST
Nautical Twilight 6:05 AM CST 7:31 PM CST
Astronomical Twilight 5:37 AM CST 7:58 PM CST
Moon 2:48 AM CST (3/6) 1:41 PM CST (3/6)
Length of Visible Light 12h 30m
Length of Day
11h 43m
Waning Crescent, 29% of the Moon is Illuminated
Mar 6
Waning Crescent
Mar 11
New
Mar 19
First Quarter
Mar 27
Full
Apr 2
Last Quarter

Hourly Weather History & Observations

Time (CST) Temp. Windchill Dew Point Humidity Pressure Visibility Wind Dir Wind Speed Gust Speed Precip Events Conditions
12:51 AM 34.0 °F 26.6 °F 12.9 °F 42% 30.35 in 10.0 mi NNE 9.2 mph - N/A   Clear
1:51 AM 34.0 °F 26.6 °F 10.9 °F 38% 30.36 in 10.0 mi NNE 9.2 mph - N/A   Clear
2:51 AM 32.0 °F 24.8 °F 12.0 °F 44% 30.35 in 10.0 mi NNE 8.1 mph - N/A   Clear
3:51 AM 30.9 °F 23.5 °F 14.0 °F 50% 30.34 in 10.0 mi NNE 8.1 mph - N/A   Clear
4:51 AM 28.0 °F 21.7 °F 16.0 °F 61% 30.37 in 10.0 mi North 5.8 mph - N/A   Clear
5:51 AM 27.0 °F 20.5 °F 17.1 °F 66% 30.39 in 10.0 mi North 5.8 mph - N/A   Clear
6:51 AM 28.9 °F 21.9 °F 19.0 °F 67% 30.41 in 10.0 mi North 6.9 mph - N/A   Clear
7:51 AM 36.0 °F 33.3 °F 18.0 °F 48% 30.43 in 10.0 mi NE 3.5 mph - N/A   Clear
8:51 AM 46.9 °F - 17.1 °F 30% 30.43 in 10.0 mi ENE 8.1 mph - N/A   Clear
9:51 AM 52.0 °F - 18.0 °F 26% 30.44 in 10.0 mi East 11.5 mph 18.4 mph N/A   Clear
10:51 AM 55.9 °F - 16.0 °F 21% 30.44 in 10.0 mi East 9.2 mph - N/A   Clear
11:51 AM 60.1 °F - 16.0 °F 18% 30.41 in 10.0 mi East 10.4 mph - N/A   Clear
12:51 PM 61.0 °F - 15.1 °F 17% 30.36 in 10.0 mi SE 8.1 mph - N/A   Clear
1:51 PM 62.1 °F - 15.1 °F 16% 30.32 in 10.0 mi SSE 9.2 mph - N/A   Clear
2:51 PM 60.1 °F - 15.1 °F 17% 30.30 in 10.0 mi SSE 6.9 mph - N/A   Clear
3:51 PM 60.1 °F - 16.0 °F 18% 30.27 in 10.0 mi South 5.8 mph - N/A   Clear
4:51 PM 61.0 °F - 16.0 °F 17% 30.25 in 10.0 mi South 6.9 mph - N/A   Clear
5:51 PM 59.0 °F - 16.0 °F 19% 30.26 in 10.0 mi South 6.9 mph - N/A   Clear
6:51 PM 55.9 °F - 17.1 °F 22% 30.23 in 10.0 mi SE 8.1 mph - N/A   Clear
7:51 PM 51.1 °F - 17.1 °F 26% 30.24 in 10.0 mi SE 6.9 mph - N/A   Clear
8:51 PM 52.0 °F - 18.0 °F 26% 30.24 in 10.0 mi SE 3.5 mph - N/A   Clear
9:51 PM 42.1 °F 40.2 °F 21.0 °F 43% 30.25 in 10.0 mi NNE 3.5 mph - N/A   Clear
10:51 PM 39.9 °F - 19.9 °F 45% 30.24 in 10.0 mi Calm Calm - N/A   Clear
11:51 PM 46.0 °F 42.5 °F 21.0 °F 37% 30.22 in 10.0 mi SE 6.9 mph - N/A   Clear